SAS4BG ENGM-ENEV

Flight info

Callsign SAS4BG
Flight time N/A
Altitude 37000
Route RIBBE DCT GIGNI DCT SOMUB DCT TUXOT DCT VABOT DCT PENNO
Aircraft A320/M-SDE3FGHIJ1RWXYZ/ALB1

Departure

Time N/A
Airport Oslo-Gardermoen International Airport (ENGM)

Arrival

Time 2026-04-27 16:14
Airport Harstad/Narvik Airport (ENEV)
Time Latitude Longitude Altitude Speed Heading
2026-04-27 15:43 66.39393 14.46258 37404 ft 409 kts 17°
2026-04-27 15:43 66.42416 14.49265 37392 ft 408 kts 17°
2026-04-27 15:44 66.45060 14.51895 37199 ft 408 kts 17°
2026-04-27 15:44 66.47696 14.54527 36946 ft 406 kts 17°
2026-04-27 15:44 66.50321 14.57161 36678 ft 405 kts 17°
2026-04-27 15:44 66.52933 14.59786 36440 ft 403 kts 17°
2026-04-27 15:45 66.55498 14.62368 36207 ft 401 kts 18°
2026-04-27 15:45 66.58084 14.64974 35965 ft 399 kts 17°
2026-04-27 15:45 66.60646 14.67559 35630 ft 394 kts 17°
2026-04-27 15:45 66.63178 14.70122 35216 ft 391 kts 17°
2026-04-27 15:46 66.65690 14.72676 34798 ft 388 kts 17°
2026-04-27 15:46 66.68189 14.75222 34366 ft 386 kts 17°
2026-04-27 15:46 66.70667 14.77742 33887 ft 382 kts 17°
2026-04-27 15:46 66.73114 14.80237 33471 ft 376 kts 17°
2026-04-27 15:47 66.75525 14.82706 33063 ft 371 kts 17°
2026-04-27 15:47 66.77904 14.85150 32653 ft 365 kts 16°
2026-04-27 15:47 66.80236 14.87547 32257 ft 360 kts 16°
2026-04-27 15:47 66.82544 14.89926 31868 ft 355 kts 15°
2026-04-27 15:48 66.84812 14.92266 31523 ft 349 kts 15°
2026-04-27 15:48 66.87051 14.94578 31117 ft 345 kts 15°
2026-04-27 15:48 66.89257 14.96862 30756 ft 339 kts 15°
2026-04-27 15:49 66.93532 15.01306 30013 ft 328 kts 14°
2026-04-27 15:49 66.95619 15.03487 29693 ft 321 kts 14°
2026-04-27 15:49 66.97670 15.05626 29368 ft 315 kts 14°
2026-04-27 15:49 66.99688 15.07733 29043 ft 310 kts 14°
2026-04-27 15:50 67.01671 15.09809 28737 ft 306 kts 14°
2026-04-27 15:50 67.03625 15.11867 28436 ft 302 kts 14°
2026-04-27 15:50 67.05554 15.13899 28137 ft 296 kts 14°
2026-04-27 15:50 67.07442 15.15881 27833 ft 291 kts 14°
2026-04-27 15:51 67.09306 15.17839 27533 ft 286 kts 14°
2026-04-27 15:51 67.11132 15.19765 27239 ft 281 kts 14°
2026-04-27 15:51 67.12924 15.21661 26949 ft 276 kts 14°
2026-04-27 15:51 67.14684 15.23522 26657 ft 271 kts 14°
2026-04-27 15:52 67.16396 15.25335 26358 ft 266 kts 13°
2026-04-27 15:52 67.18143 15.27173 25664 ft 276 kts 14°
2026-04-27 15:52 67.19946 15.29062 25165 ft 282 kts 14°
2026-04-27 15:52 67.21770 15.30996 24674 ft 283 kts 14°
2026-04-27 15:53 67.23594 15.32948 24201 ft 284 kts 14°
2026-04-27 15:53 67.25427 15.34914 23666 ft 285 kts 14°
2026-04-27 15:53 67.27260 15.36882 23096 ft 286 kts 15°
2026-04-27 15:53 67.29103 15.38861 22535 ft 286 kts 15°
2026-04-27 15:54 67.30916 15.40811 21993 ft 285 kts 15°
2026-04-27 15:54 67.32754 15.42794 21454 ft 285 kts 15°
2026-04-27 15:54 67.34588 15.44776 20924 ft 285 kts 15°
2026-04-27 15:54 67.36422 15.46757 20382 ft 286 kts 15°
2026-04-27 15:55 67.38264 15.48751 19846 ft 287 kts 16°
2026-04-27 15:55 67.39487 15.50079 19490 ft 288 kts 16°
2026-04-27 15:55 67.41950 15.52759 18808 ft 289 kts 16°
2026-04-27 15:55 67.43814 15.54779 18232 ft 290 kts 16°
2026-04-27 15:56 67.45677 15.56796 17666 ft 290 kts 17°
2026-04-27 15:56 67.47552 15.58833 17081 ft 292 kts 17°
2026-04-27 15:56 67.49430 15.60884 16507 ft 293 kts 18°
2026-04-27 15:56 67.51310 15.62943 15949 ft 293 kts 18°
2026-04-27 15:57 67.53206 15.65028 15397 ft 296 kts 18°
2026-04-27 15:57 67.55114 15.67130 14857 ft 299 kts 19°
2026-04-27 15:57 67.57014 15.69226 14325 ft 299 kts 19°
2026-04-27 15:57 67.58937 15.71354 13744 ft 300 kts 19°
2026-04-27 15:58 67.60868 15.73487 13151 ft 301 kts 19°
2026-04-27 15:58 67.62788 15.75613 12573 ft 303 kts 20°
2026-04-27 15:58 67.64725 15.77765 11993 ft 297 kts 20°
2026-04-27 15:58 67.66620 15.79874 11438 ft 296 kts 20°
2026-04-27 15:59 67.68535 15.81999 10885 ft 299 kts 20°
2026-04-27 15:59 67.70461 15.84137 10337 ft 301 kts 21°
2026-04-27 15:59 67.72402 15.86300 9737 ft 302 kts 21°
2026-04-27 15:59 67.74317 15.88442 9159 ft 303 kts 21°
2026-04-27 16:00 67.76265 15.90631 8585 ft 303 kts 21°
2026-04-27 16:00 67.77542 15.92070 8359 ft 298 kts 21°
2026-04-27 16:00 67.79996 15.94848 8324 ft 276 kts 21°
2026-04-27 16:00 67.81732 15.96812 8250 ft 265 kts 20°
2026-04-27 16:01 67.83401 15.98690 8104 ft 262 kts 20°
2026-04-27 16:01 67.85082 16.00582 7943 ft 261 kts 20°
2026-04-27 16:01 67.86755 16.02470 7782 ft 261 kts 20°
2026-04-27 16:01 67.88430 16.04367 7620 ft 260 kts 20°
2026-04-27 16:02 67.90073 16.06233 7469 ft 259 kts 21°
2026-04-27 16:02 67.91728 16.08123 7310 ft 259 kts 21°
2026-04-27 16:02 67.93387 16.10015 7155 ft 258 kts 20°
2026-04-27 16:02 67.95035 16.11890 6999 ft 257 kts 20°
2026-04-27 16:03 67.96681 16.13753 6844 ft 257 kts 20°
2026-04-27 16:03 67.98313 16.15595 6687 ft 256 kts 20°
2026-04-27 16:03 67.99952 16.17447 6505 ft 255 kts 20°
2026-04-27 16:03 68.01589 16.19303 6320 ft 255 kts 20°
2026-04-27 16:04 68.03218 16.21154 6119 ft 254 kts 20°
2026-04-27 16:04 68.04846 16.23006 5940 ft 253 kts 20°
2026-04-27 16:04 68.06447 16.24824 5801 ft 244 kts 21°
2026-04-27 16:04 68.07973 16.26563 5668 ft 238 kts 21°
2026-04-27 16:05 68.09475 16.28283 5537 ft 230 kts 21°
2026-04-27 16:05 68.10916 16.29938 5395 ft 222 kts 21°
2026-04-27 16:05 68.12327 16.31561 5268 ft 220 kts 21°
2026-04-27 16:05 68.13734 16.33175 5133 ft 220 kts 21°
2026-04-27 16:06 68.15143 16.34798 4987 ft 219 kts 21°
2026-04-27 16:06 68.16526 16.36398 4856 ft 218 kts 21°
2026-04-27 16:06 68.17923 16.38013 4796 ft 218 kts 21°
2026-04-27 16:06 68.19294 16.39785 4713 ft 219 kts 25°
2026-04-27 16:07 68.20642 16.41681 4602 ft 216 kts 26°
2026-04-27 16:07 68.21924 16.43521 4499 ft 206 kts 25°
2026-04-27 16:07 68.23166 16.45303 4386 ft 197 kts 25°
2026-04-27 16:07 68.24347 16.46995 4276 ft 190 kts 25°
2026-04-27 16:08 68.25505 16.48649 4163 ft 188 kts 26°
2026-04-27 16:08 68.26665 16.50298 4082 ft 186 kts 25°
2026-04-27 16:08 68.27812 16.51928 4011 ft 186 kts 25°
2026-04-27 16:08 68.28940 16.53540 3889 ft 177 kts 25°
2026-04-27 16:09 68.29980 16.55036 3801 ft 169 kts 25°
2026-04-27 16:09 68.32127 16.58089 3809 ft 177 kts 25°
2026-04-27 16:09 68.33218 16.59647 3808 ft 177 kts 23°
2026-04-27 16:10 68.35554 16.61409 3230 ft 163 kts 11°
2026-04-27 16:10 68.37611 16.62642 2844 ft 144 kts
2026-04-27 16:11 68.38591 16.63230 2531 ft 144 kts
2026-04-27 16:11 68.40544 16.64401 1990 ft 143 kts 11°
2026-04-27 16:12 68.42474 16.65690 1388 ft 143 kts 11°
2026-04-27 16:12 68.43431 16.66334 1107 ft 141 kts 12°
2026-04-27 16:12 68.45294 16.67441 631 ft 136 kts
2026-04-27 16:13 68.46229 16.67889 488 ft 136 kts
2026-04-27 16:13 68.48093 16.67930 112 ft 132 kts 354°
2026-04-27 16:13 68.48907 16.67837 95 ft 95 kts 359°
2026-04-27 16:14 68.49653 16.67763 93 ft 36 kts 356°
2026-04-27 16:14 68.50160 16.67715 91 ft 29 kts 357°
2026-04-27 16:15 68.50367 16.68003 89 ft 22 kts 135°
2026-04-27 16:15 68.49990 16.68079 68 ft 33 kts 178°
2026-04-27 16:16 68.49530 16.68148 77 ft 21 kts 177°
2026-04-27 16:16 68.49367 16.68164 138 ft 10 kts 177°
2026-04-27 16:17 68.49173 16.68187 152 ft 17 kts 178°
2026-04-27 16:17 68.48942 16.68212 152 ft 11 kts 177°
2026-04-27 16:18 68.48891 16.68321 152 ft 4 kts 94°
2026-04-27 16:18 68.48894 16.68562 156 ft 10 kts 88°
2026-04-27 16:19 68.48933 16.68638 153 ft 9 kts
2026-04-27 16:19 68.48962 16.68637 156 ft 3 kts 358°
2026-04-27 16:20 68.48964 16.68636 156 ft 0 kts 358°